Change the Weather History Date:

Sunday, December 23, 2012

  Actual Average (LIPL) Record (LIPL)
Temperature  
Mean Temperature 30 °F -  
Max Temperature 33 °F 40 °F 46 °F (1996)
Min Temperature 28 °F 28 °F 19 °F (1999)
Degree Days  
Heating Degree Days 34    
Moisture  
Dew Point 31 °F    
Average Humidity 100    
Maximum Humidity 100    
Minimum Humidity 100    
Precipitation  
Precipitation 0.00 in - - ()
Sea Level Pressure  
Sea Level Pressure 30.12 in    
Wind  
Wind Speed 4 mph ()    
Max Wind Speed 7 mph    
Max Gust Speed -    
Visibility 0.2 miles    
Events Fog    
Averages and records for this station are not official NWS values.
T = Trace of Precipitation, MM = Missing Value Source: Averaged Metar Reports

Daily Weather History Graph

Daily Weather History Graph

Search for Another Location

Airport or City:

Trip Planner

Search our weather history database for the weather conditions in past years. The results will help you decide how hot, cold, wet, or windy it might be!

Date:

Astronomy

Dec. 23, 2012 Rise Set
Actual Time 7:56 AM CET 4:39 PM CET
Civil Twilight 7:22 AM CET 5:13 PM CET
Nautical Twilight 6:44 AM CET 5:51 PM CET
Astronomical Twilight 6:08 AM CET 6:27 PM CET
Moon 1:26 PM CET (12/23) 3:16 AM CET (12/23)
Length of Visible Light 9h 51m
Length of Day
8h 42m
Waxing Gibbous, 79% of the Moon is Illuminated
Dec 23
Waxing Gibbous
Dec 28
Full
Jan 5
Last Quarter
Jan 11
New
Jan 19
First Quarter

Hourly Weather History & Observations

Time (CET) Temp. Windchill Dew Point Humidity Pressure Visibility Wind Dir Wind Speed Gust Speed Precip Events Conditions
12:50 AM 32.0 °F 28.7 °F 32.0 °F 100% 30.12 in 0.1 mi NW 3.5 mph - N/A Fog Light Freezing Fog
1:50 AM 30.2 °F 25.4 °F 30.2 °F 100% 30.12 in 0.1 mi West 4.6 mph - N/A Fog Light Freezing Fog
2:50 AM 30.2 °F 23.4 °F 30.2 °F 100% 30.12 in 0.1 mi West 6.9 mph - N/A Fog Light Freezing Fog
3:50 AM 30.2 °F 24.3 °F 30.2 °F 100% 30.12 in 0.1 mi WNW 5.8 mph - N/A Fog Light Freezing Fog
4:50 AM 28.4 °F 22.2 °F 28.4 °F 100% 30.09 in 0.2 mi West 5.8 mph - N/A Fog Light Freezing Fog
5:50 AM 28.4 °F 23.3 °F 28.4 °F 100% 30.06 in 0.2 mi West 4.6 mph - N/A Fog Light Freezing Fog
6:50 AM 28.4 °F 21.2 °F 28.4 °F 100% 30.06 in 0.2 mi WNW 6.9 mph - N/A Fog Light Freezing Fog
7:50 AM 28.4 °F 24.6 °F 28.4 °F 100% 30.09 in 0.2 mi West 3.5 mph - N/A Fog Light Freezing Fog
8:50 AM 28.4 °F 21.2 °F 28.4 °F 100% 30.09 in 0.1 mi WNW 6.9 mph - N/A Fog Light Freezing Fog
9:50 AM 30.2 °F 26.7 °F 30.2 °F 100% 30.09 in 0.1 mi WNW 3.5 mph - N/A Fog Light Freezing Fog
10:50 AM 30.2 °F 25.4 °F 30.2 °F 100% 30.12 in 0.1 mi WNW 4.6 mph - N/A Fog Light Freezing Fog
11:30 AM 30.2 °F - 30.2 °F 100% 30.09 in 0.1 mi SSE 1.2 mph - N/A Fog Light Freezing Fog
11:50 AM 30.2 °F - 30.2 °F 100% 30.12 in 0.1 mi NE 1.2 mph - N/A Fog Light Freezing Fog
12:50 PM 32.0 °F 28.7 °F 32.0 °F 100% 30.09 in 0.1 mi WSW 3.5 mph - N/A Fog Light Freezing Fog
1:15 PM 32.0 °F - 32.0 °F 100% 30.09 in 0.3 mi WNW 2.3 mph - N/A Fog Light Freezing Fog
1:50 PM 32.0 °F - 32.0 °F 100% 30.09 in 0.4 mi NE 2.3 mph - N/A Fog Light Freezing Fog
2:50 PM 32.0 °F - 32.0 °F 100% 30.09 in 0.1 mi East 2.3 mph - N/A Fog Fog
3:50 PM 33.8 °F - 33.8 °F 100% 30.12 in 0.1 mi East 2.3 mph - N/A Fog Fog
4:50 PM 33.8 °F 30.8 °F 33.8 °F 100% 30.12 in 0.1 mi SE 3.5 mph - N/A Fog Fog
5:50 PM 33.8 °F - 33.8 °F 100% 30.12 in 0.2 mi ESE 2.3 mph - N/A Fog Fog
6:50 PM 33.8 °F - 33.8 °F 100% 30.15 in 0.2 mi ESE 2.3 mph - N/A Fog Fog
7:50 PM 32.0 °F 28.7 °F 32.0 °F 100% 30.15 in 0.1 mi NNE 3.5 mph - N/A Fog Fog
8:50 PM 32.0 °F - 32.0 °F 100% 30.15 in 0.2 mi East 2.3 mph - N/A Fog Light Freezing Fog
9:35 PM 30.2 °F - 30.2 °F 100% 30.18 in 0.4 mi SW 2.3 mph - N/A Fog Light Freezing Fog
9:50 PM 30.2 °F 26.7 °F 30.2 °F 100% 30.18 in 0.3 mi WSW 3.5 mph - N/A Fog Light Freezing Fog
10:50 PM 28.4 °F - 28.4 °F 100% 30.18 in 0.2 mi NW 1.2 mph - N/A Fog Light Freezing Fog
11:50 PM 30.2 °F - 30.2 °F 100% 30.18 in 0.2 mi NNE 2.3 mph - N/A Fog Light Freezing Fog